SCP
0 0 0 0 0 0 0 0 0 0 0 0 0 0 0 0 0 0 0 0 0 0 0 0 0 0 0 0 0 0 0 0 0 0 0 0 0 0 0 0 0 0 0 0
0 0 0 0 0 0 0 0 0 0 0 0 -0 -0 0 0 0 0 0 0 0 0 0 0 0 0 0 0 0 0 0 0 0 0 0 0 0 0 0 0 0 0 0 0
0 0 0 0 0 0 0 0 0 0 0 -0 -0 -0 0 0 0 0 0 0 0 0 0 0 0 0 0 0 0 0 0 0 0 0 0 0 0 0 0 0 0 0 0 0
0 0 0 0 0 0 0 0 0 -0 -0 -0 -0 -0 0 0 0 0 0 0 0 -0 0 0 0 0 0 0 0 0 0 0 0 0 0 0 0 0 0 0 0 0 0 0
0 0 0 0 0 0 0 0 0 0 -0 -0 -0 -0 0 0 0 0 0 0 0 0 0 0 0 0 0 0 0 0 0 0 0 0 0 0 0 0 0 0 0 0 0 0
0 0 0 0 0 0 0 0 0 0 0 0 0 0 0 0 0 0 0 0 0 0 0 0 0 0 0 0 0 0 0 0 0 0 0 0 0 0 0 0 0 0 0 0
0 0 0 0 0 0 0 0 0 0 0 0 0 0 0 0 0 0 0 0 0 0 0 0 0 0 0 0 0 0 0 0 0 0 0 0 0 0 0 0 0 0 0 0
0 0 0 0 0 0 0 0 0 0 0 0 0 0 0 0 0 0 0 0 0 0 0 0 0 0 0 0 0 0 0 0 0 0 0 0 0 0 0 0 0 0 0 0
0 0 0 0 0 0 0 0 0 0 0 0 0 0 0 0 0 0 0 0 0 0 0 0 0 0 0 0 0 0 0 0 0 0 0 0 0 0 0 0 0 0 0 0
0 0 0 0 0 0 0 0 0 0 0 0 0 0 0 0 0 0 0 0 0 0 0 0 0 0 0 0 0 0 0 0 0 0 0 0 0 0 0 0 0 0 0 0
0 0 0 0 -0 -0 -0 -0 0 0 0 0 0 0 0 0 0 0 0 0 0 0 0 0 0 0 0 0 0 0 0 0 0 0 0 0 0 0 0 0 0 0 0 0
0 0 0 0 0 -0 -0 -0 0 0 0 0 0 0 0 0 0 0 0 0 0 0 0 0 0 0 0 0 0 0 0 0 0 0 0 0 0 0 0 0 0 0 0 0
0 0 0 0 0 -0 -0 -0 0 0 0 0 0 0 0 0 0 0 0 0 0 0 0 0 0 0 0 0 0 0 0 0 0 0 0 0 0 0 0 0 0 0 0 0
0 0 0 0 0 0 0 0 0 0 0 0 0 0 0 0 0 0 0 0 0 0 0 0 0 0 0 0 0 0 0 0 0 0 0 0 0 0 0 0 0 0 0 0
0 0 0 0 0 0 0 0 0 0 0 0 0 0 0 0 0 0 0 0 0 0 0 0 0 0 0 0 0 0 0 0 0 0 0 0 0 0 0 0 0 0 0 0
0 0 0 0 0 0 0 0 0 0 0 0 0 0 0 0 0 0 0 0 0 0 -0 0 0 0 0 0 0 0 0 0 0 0 0 0 0 0 0 0 0 0 0 0
0 0 0 0 0 0 0 0 0 0 0 0 0 0 0 0 0 0 0 0 0 0 -0 -0 0 0 0 0 0 0 0 0 0 0 0 0 0 0 0 0 0 0 0 0
-0 -0 0 0 0 0 0 -0 0 0 0 0 0 0 0 0 0 0 0 0 0 0 -0 0 0 0 0 0 0 0 0 0 0 0 0 0 0 0 0 0 0 0 0 0
-0 -0 0 0 0 -0 -0 -0 0 0 0 0 0 0 0 0 0 0 0 0 0 0 0 0 0 0 0 0 0 0 0 0 0 0 0 0 0 0 0 0 0 0 0 0
0 0 0 0 0 0 0 0 0 0 0 0 0 0 0 0 0 0 0 0 0 0 0 0 0 0 0 0 0 0 0 0 0 0 0 0 0 0 0 0 0 0 0 0
0 0 0 0 0 0 0 0 0 0 0 -0 -0 -0 -0 0 0 0 0 0 0 0 0 0 0 0 0 0 0 0 0 0 0 0 0 0 0 0 0 0 0 0 0 0
0 0 0 0 0 0 0 0 0 0 -0 -0 -0 -0 -0 0 -0 0 0 0 0 0 0 0 0 0 0 0 0 0 0 0 0 0 0 0 0 0 0 0 0 0 0 0
0 0 0 0 0 0 0 0 0 0 -0 -0 -0 -0 -0 0 -0 -0 -0 -0 0 0 0 0 0 0 0 0 0 0 0 0 0 0 0 0 0 0 0 0 0 0 0 0
0 0 0 0 0 0 0 0 0 0 -0 -0 -0 -0 0 0 0 0 0 -0 0 0 0 0 0 0 0 0 0 0 0 0 0 0 0 0 0 0 0 0 0 0 0 0
0 0 0 0 0 0 0 0 0 0 0 0 0 0 0 0 0 0 0 -0 0 0 0 0 0 0 0 0 0 0 0 0 0 0 0 0 0 0 0 0 0 0 0 0
0 0 0 0 0 0 0 0 0 0 0 0 0 0 0 0 0 0 0 0 0 0 0 0 0 0 0 0 0 0 0 0 0 0 0 0 0 0 0 0 0 0 0 0
0 0 0 0 0 0 0 0 0 0 0 0 0 0 0 0 0 0 0 0 0 0 0 0 0 0 0 0 0 0 0 0 0 0 0 0 0 0 0 0 0 0 0 0
Wind_Speed
6 6 5 7 8 7 8 8 8 8 7 9 7 5 5 4 3 2 3 3 3 4 4 4 4 4 5 5 5 5 5 6 7 6 5 5 5 5 4 4 5 4 4 3
5 4 4 7 10 9 10 9 10 8 10 8 5 3 3 3 3 3 3 4 4 4 4 4 5 5 5 5 5 4 5 7 6 5 5 5 5 5 4 4 4 4 4 4
4 5 5 8 9 10 7 7 8 11 10 3 2 4 4 4 3 3 4 4 4 4 5 5 6 5 5 6 4 4 5 6 5 5 5 5 5 5 5 5 4 4 4 4
3 3 6 7 2 6 6 6 7 6 5 3 5 4 4 3 3 3 4 4 5 5 5 5 5 4 4 4 3 4 5 5 5 5 5 5 4 5 5 4 4 4 4 5
2 3 9 8 3 4 5 4 5 6 5 3 2 1 3 3 2 3 4 4 5 5 5 4 5 4 3 3 3 4 5 5 5 5 5 5 5 6 5 4 4 4 4 5
3 4 7 5 1 2 3 4 3 4 4 2 2 1 5 3 3 4 4 4 4 4 4 4 5 3 3 4 4 5 6 5 5 5 5 6 6 5 4 4 5 4 4 4
6 7 10 7 2 3 3 5 2 3 3 3 4 6 5 4 4 4 4 5 4 4 4 5 4 3 4 4 6 6 5 4 4 4 5 5 5 4 3 4 3 4 4 4
6 7 11 4 5 6 7 2 2 3 3 4 5 6 5 5 5 5 5 5 5 4 5 5 4 3 4 6 6 4 4 4 4 4 4 3 4 3 3 4 4 4 3 3
11 10 5 4 6 4 3 3 3 3 4 4 5 5 5 5 5 6 6 5 5 5 6 5 4 3 5 6 4 4 3 4 4 3 3 3 4 4 3 3 4 4 3 4
6 9 6 5 4 3 3 4 5 5 5 4 5 6 6 6 6 6 6 5 5 4 5 6 5 4 6 6 4 3 4 4 3 3 3 3 3 3 3 4 4 4 4 4
7 7 4 5 6 6 5 5 5 5 4 5 6 6 6 6 6 6 6 5 4 5 6 7 6 6 6 5 3 4 4 4 3 3 3 3 3 4 5 5 6 6 5 5
8 7 6 6 5 5 5 5 5 4 4 4 5 6 6 6 6 6 6 5 5 5 6 6 6 6 6 4 4 4 4 4 3 3 3 3 3 3 6 7 9 11 9 7
8 5 5 6 4 4 5 5 5 5 5 6 5 5 5 5 5 5 5 5 6 6 6 6 6 7 6 4 4 5 5 4 3 3 3 3 3 4 3 4 7 9 10 10
6 4 5 5 5 4 4 5 4 4 4 5 4 4 4 4 5 5 6 6 6 6 6 6 6 7 6 4 4 5 5 6 5 4 4 4 4 4 4 4 4 3 6 10
7 6 6 4 3 3 3 2 2 4 4 4 4 4 4 5 6 7 6 5 5 6 6 6 7 8 5 4 5 5 5 4 4 4 4 4 4 4 4 4 4 3 2 4
5 4 4 4 5 4 3 3 4 5 5 5 5 5 5 6 6 6 6 5 5 7 7 6 8 8 5 4 5 4 4 7 5 4 4 4 4 4 4 4 4 4 4 4
5 5 5 5 6 5 5 5 5 5 5 5 6 6 5 5 6 7 6 5 6 7 7 7 8 7 5 5 5 4 4 5 7 4 4 4 4 5 5 5 5 5 5 6
8 8 7 6 6 6 6 5 5 5 6 6 5 5 5 6 7 8 7 6 6 7 8 8 7 6 5 5 4 4 4 4 4 4 4 4 4 5 5 5 5 6 4 5
5 6 6 6 6 6 5 6 5 5 5 5 5 6 6 7 7 7 6 6 7 9 8 6 8 6 6 6 5 4 4 4 4 4 4 6 6 5 5 5 5 5 5 4
3 4 4 5 4 5 5 5 5 5 5 5 5 6 7 7 7 7 6 7 8 7 7 7 6 6 6 6 6 4 4 5 5 4 4 4 5 5 5 5 5 5 5 5
3 3 3 4 4 5 5 5 5 6 6 5 6 7 8 8 7 6 6 8 8 6 6 9 6 5 5 5 6 4 4 5 5 5 5 5 5 5 5 5 5 5 5 5
3 3 4 4 4 5 5 5 5 6 6 6 7 7 7 8 8 7 8 8 8 9 6 5 5 7 8 8 4 4 5 5 5 5 5 5 5 5 5 5 5 5 4 4
4 5 5 5 6 6 6 6 6 6 7 8 8 8 8 8 6 6 8 6 5 8 6 5 8 11 12 6 4 5 5 5 5 5 5 5 5 5 5 5 5 4 4 4
6 6 6 6 5 5 7 8 7 6 7 8 8 8 8 7 6 6 7 9 11 11 6 8 12 13 11 5 4 4 5 5 5 5 5 5 5 5 5 5 4 4 4 5
7 7 7 6 6 7 8 8 7 7 7 7 8 8 7 6 7 7 6 7 10 10 7 9 12 12 7 4 5 5 5 5 5 5 5 5 5 5 5 4 4 4 4 4
7 7 7 7 7 6 6 5 6 6 6 7 7 6 5 5 7 7 6 7 9 10 7 6 6 7 5 5 5 5 5 5 6 5 5 5 5 5 4 4 5 4 4 4
7 7 6 6 7 6 6 6 7 7 7 7 8 7 6 5 5 6 7 6 6 6 5 5 5 5 5 5 5 5 5 5 5 5 4 5 4 4 5 5 4 4 4 4
Wind_Direction
255 260 246 241 241 221 210 207 213 235 235 252 254 251 259 260 268 276 284 276 260 256 258 261 261 257 249 247 242 229 222 227 235 236 227 223 224 223 220 217 218 215 217 226
287 275 260 260 247 231 227 223 233 252 265 249 242 240 255 258 260 262 273 275 276 274 272 268 261 257 254 251 246 230 227 234 237 232 224 223 223 220 219 221 220 213 216 221
278 308 325 270 236 206 208 209 198 226 242 244 251 258 255 253 250 254 270 276 281 280 269 264 259 250 247 247 245 235 236 240 237 228 227 228 223 216 218 219 215 217 219 218
279 343 251 247 241 184 198 233 215 225 240 227 227 242 247 229 227 259 277 282 286 281 276 272 263 257 256 252 242 240 243 245 239 228 230 230 223 225 224 215 212 216 220 219
209 266 277 288 255 182 186 255 223 220 238 237 242 314 290 247 224 244 260 267 266 269 272 276 275 268 265 261 249 245 248 247 238 226 227 226 226 230 226 215 217 215 214 213
194 236 251 253 227 152 117 264 245 192 214 220 137 294 268 262 274 277 278 273 275 283 286 284 282 273 262 261 256 251 250 249 243 228 225 228 229 229 223 214 219 215 221 216
212 239 264 256 206 125 189 243 206 180 201 194 201 221 247 273 278 275 282 282 282 284 281 275 279 271 261 262 257 256 257 254 248 235 230 231 230 224 220 216 215 216 223 226
187 216 253 219 148 187 219 222 201 210 215 223 239 253 262 267 271 280 284 286 285 281 280 279 274 261 264 264 263 265 258 252 248 243 236 227 220 224 215 206 214 223 226 235
197 216 238 189 198 211 185 202 221 224 239 240 253 262 267 270 273 276 275 278 278 273 281 284 273 252 261 268 268 265 257 253 252 247 235 224 214 217 216 209 215 223 222 233
241 256 255 246 238 236 216 222 233 235 242 238 249 262 270 272 274 276 274 274 273 274 278 283 277 263 255 265 262 253 253 256 252 243 242 230 220 213 212 214 218 222 223 230
246 263 277 256 226 227 237 239 241 242 235 238 248 260 261 267 272 271 273 272 266 264 268 273 276 271 266 260 247 247 250 249 247 237 232 233 229 223 220 222 215 219 223 218
233 223 213 238 229 223 227 236 237 244 258 255 242 252 262 264 265 268 272 273 274 269 267 272 273 274 271 258 236 236 251 249 241 236 232 229 236 257 240 234 240 237 231 224
237 234 229 245 243 229 231 238 242 240 246 258 258 252 256 263 266 271 276 276 271 269 270 273 275 276 274 261 242 235 242 246 239 231 228 227 225 230 254 253 239 237 234 233
244 244 252 244 243 241 238 245 248 255 255 253 255 261 260 265 273 277 275 273 272 273 273 272 273 274 273 261 249 246 245 242 235 230 227 226 224 224 228 237 246 246 234 234
241 224 227 236 241 247 242 239 253 267 269 272 267 265 265 269 273 274 274 274 276 274 273 272 274 276 272 255 250 251 248 245 236 232 229 227 223 220 224 230 236 240 239 238
239 235 229 228 240 245 240 236 244 259 264 266 269 267 264 264 269 275 276 271 270 275 276 274 273 275 271 258 253 253 248 247 242 235 231 227 222 223 224 224 226 227 228 226
219 230 226 232 237 241 237 236 240 252 261 265 266 271 275 277 280 281 280 273 262 265 268 266 268 273 266 254 247 247 246 248 241 237 232 228 226 226 226 224 226 227 228 222
222 224 220 221 227 236 244 246 246 251 254 259 267 271 271 270 273 278 282 288 289 285 275 261 260 265 261 254 247 241 237 238 233 232 233 233 233 227 224 226 229 230 232 229
228 226 227 228 227 225 234 243 248 250 257 259 262 265 265 264 264 269 277 282 283 284 281 270 268 266 262 255 249 235 233 238 239 235 232 241 242 230 227 228 229 226 224 220
242 235 233 240 237 230 237 246 251 259 261 255 258 266 270 268 264 266 269 268 261 256 268 278 276 266 260 255 248 234 233 237 239 239 234 233 235 235 231 230 228 225 222 220
247 248 246 248 256 254 247 245 249 259 265 256 250 258 265 271 268 263 266 276 275 261 262 272 269 263 259 255 250 236 234 238 239 237 235 235 236 236 234 231 229 225 221 220
248 249 253 256 259 267 264 252 250 258 266 267 263 259 263 269 270 265 252 252 266 273 272 265 262 263 265 263 243 236 238 240 242 238 235 233 234 237 236 231 229 225 219 214
250 250 252 254 254 261 270 265 256 255 259 262 263 262 259 260 257 261 274 264 255 267 267 258 263 270 273 264 242 238 240 242 242 239 236 233 233 234 235 231 227 222 217 213
256 258 257 258 260 265 271 271 265 258 256 260 260 257 256 264 267 248 247 266 271 274 267 265 271 275 276 257 241 240 242 243 243 242 239 236 234 232 230 228 225 221 217 212
256 259 261 260 258 257 259 265 270 268 265 264 264 259 247 237 248 262 258 257 265 272 269 269 274 276 269 249 242 242 242 241 240 238 236 237 234 231 229 225 222 219 216 212
255 256 255 250 249 255 258 260 265 268 268 272 273 264 254 245 245 253 258 258 259 267 265 262 262 266 253 247 245 242 241 249 253 244 235 233 232 229 226 222 218 218 214 209
255 256 260 263 259 249 245 247 254 260 258 258 268 270 262 257 253 253 255 257 258 258 257 257 254 250 249 248 247 243 239 237 235 234 231 228 226 225 223 218 216 212 205 200